JBU2334 KPBI-KDCA

Flight info

Callsign JBU2334
Flight time N/A
Altitude 35000
Route SLIDZ3 LENDS GRUBR Y299 SEELO GARIC RANAY TANJA WAVES CAPSS4
Aircraft A320/M-SDE3FGHIRWY/LB1

Departure

Time 2026-04-07 21:22
Airport Palm Beach International Airport (KPBI)

Arrival

Time N/A
Airport Ronald Reagan Washington National Airport (KDCA)
Time Latitude Longitude Altitude Speed Heading
2026-04-07 21:06 26.68517 -80.08970 22 ft 0 kts 26°
2026-04-07 21:13 26.68501 -80.08978 24 ft 4 kts 17°
2026-04-07 21:13 26.68475 -80.08983 22 ft 4 kts 354°
2026-04-07 21:13 26.68452 -80.08975 22 ft 4 kts 310°
2026-04-07 21:14 26.68445 -80.08961 22 ft 0 kts 273°
2026-04-07 21:16 26.68445 -80.08966 22 ft 2 kts 272°
2026-04-07 21:16 26.68447 -80.09011 22 ft 9 kts 272°
2026-04-07 21:17 26.68427 -80.09095 22 ft 12 kts 220°
2026-04-07 21:17 26.68357 -80.09142 22 ft 13 kts 263°
2026-04-07 21:17 26.68363 -80.09255 22 ft 16 kts 273°
2026-04-07 21:17 26.68369 -80.09381 22 ft 18 kts 273°
2026-04-07 21:18 26.68375 -80.09526 22 ft 20 kts 272°
2026-04-07 21:18 26.68382 -80.09688 23 ft 22 kts 272°
2026-04-07 21:18 26.68390 -80.09867 22 ft 24 kts 273°
2026-04-07 21:18 26.68399 -80.10061 22 ft 26 kts 273°
2026-04-07 21:19 26.68407 -80.10269 22 ft 28 kts 272°
2026-04-07 21:19 26.68416 -80.10484 21 ft 24 kts 273°
2026-04-07 21:19 26.68423 -80.10647 21 ft 19 kts 272°
2026-04-07 21:19 26.68428 -80.10753 21 ft 6 kts 272°
2026-04-07 21:20 26.68429 -80.10768 21 ft 2 kts 272°
2026-04-07 21:20 26.68429 -80.10783 21 ft 0 kts 272°
2026-04-07 21:21 26.68429 -80.10784 21 ft 1 kts 272°
2026-04-07 21:21 26.68427 -80.10803 21 ft 7 kts 256°
2026-04-07 21:21 26.68348 -80.10826 21 ft 15 kts 182°
2026-04-07 21:21 26.68319 -80.10778 21 ft 14 kts 94°
2026-04-07 21:22 26.68301 -80.10359 22 ft 92 kts 92°
2026-04-07 21:22 26.68260 -80.09402 23 ft 152 kts 92°
2026-04-07 21:22 26.68216 -80.08146 517 ft 163 kts 90°
2026-04-07 21:22 26.68190 -80.06860 1199 ft 170 kts 89°
2026-04-07 21:23 26.68217 -80.05455 1497 ft 192 kts 79°
2026-04-07 21:23 26.68726 -80.03996 1769 ft 213 kts 62°
2026-04-07 21:23 26.69462 -80.02450 2127 ft 237 kts 61°
2026-04-07 21:23 26.70274 -80.00736 2558 ft 260 kts 61°
2026-04-07 21:24 26.71131 -79.98918 3369 ft 266 kts 61°
2026-04-07 21:24 26.72098 -79.97133 4216 ft 271 kts 50°
2026-04-07 21:24 26.73335 -79.95520 5042 ft 277 kts 47°
2026-04-07 21:24 26.74618 -79.93873 5817 ft 284 kts 48°
2026-04-07 21:25 26.75931 -79.92186 6596 ft 291 kts 48°
2026-04-07 21:25 26.76829 -79.91026 7128 ft 294 kts 48°
2026-04-07 21:25 26.78175 -79.89284 7927 ft 298 kts 48°
2026-04-07 21:25 26.79540 -79.87516 8687 ft 303 kts 48°
2026-04-07 21:26 26.80927 -79.85720 9411 ft 307 kts 49°
2026-04-07 21:26 26.82334 -79.83898 10099 ft 313 kts 49°
2026-04-07 21:26 26.83810 -79.81983 10301 ft 337 kts 49°
2026-04-07 21:26 26.85393 -79.79928 10464 ft 359 kts 49°
2026-04-07 21:27 26.87060 -79.77763 10847 ft 372 kts 49°
2026-04-07 21:27 26.88763 -79.75550 11435 ft 377 kts 49°
2026-04-07 21:27 26.90488 -79.73310 12044 ft 382 kts 49°
2026-04-07 21:27 26.92245 -79.71046 12652 ft 387 kts 46°
2026-04-07 21:28 26.94164 -79.68963 13275 ft 391 kts 42°
2026-04-07 21:28 26.96151 -79.66870 13904 ft 394 kts 42°
2026-04-07 21:28 26.98160 -79.64755 14501 ft 398 kts 42°
2026-04-07 21:28 27.00186 -79.62620 15109 ft 401 kts 42°
2026-04-07 21:29 27.02223 -79.60471 15699 ft 404 kts 42°
2026-04-07 21:29 27.04280 -79.58297 16264 ft 408 kts 42°
2026-04-07 21:29 27.06352 -79.56106 16826 ft 411 kts 42°
2026-04-07 21:29 27.08443 -79.53895 17393 ft 414 kts 41°
2026-04-07 21:30 27.10549 -79.51670 17962 ft 417 kts 41°
2026-04-07 21:30 27.12671 -79.49429 18527 ft 421 kts 41°
2026-04-07 21:30 27.14811 -79.47164 19099 ft 424 kts 42°
2026-04-07 21:30 27.16966 -79.44881 19643 ft 428 kts 41°
2026-04-07 21:31 27.19139 -79.42578 20186 ft 432 kts 41°
2026-04-07 21:31 27.21331 -79.40253 20689 ft 436 kts 41°
2026-04-07 21:31 27.23545 -79.37905 21191 ft 439 kts 41°
2026-04-07 21:31 27.25780 -79.35535 21657 ft 443 kts 41°
2026-04-07 21:32 27.28026 -79.33149 22098 ft 446 kts 41°
2026-04-07 21:32 27.30289 -79.30742 22536 ft 449 kts 41°
2026-04-07 21:32 27.32536 -79.28348 22943 ft 453 kts 41°
2026-04-07 21:32 27.34828 -79.25906 23336 ft 455 kts 41°
2026-04-07 21:33 27.37134 -79.23454 23724 ft 459 kts 41°
2026-04-07 21:33 27.39462 -79.20975 24094 ft 462 kts 41°
2026-04-07 21:33 27.41805 -79.18479 24461 ft 465 kts 41°
2026-04-07 21:33 27.44158 -79.15970 24835 ft 467 kts 41°
2026-04-07 21:34 27.46523 -79.13446 25222 ft 469 kts 41°
2026-04-07 21:34 27.48895 -79.10911 25603 ft 471 kts 41°
2026-04-07 21:34 27.51276 -79.08365 25975 ft 473 kts 41°
2026-04-07 21:34 27.53663 -79.05811 26338 ft 474 kts 41°
2026-04-07 21:35 27.56063 -79.03245 26680 ft 477 kts 41°
2026-04-07 21:35 27.58472 -79.00668 27048 ft 478 kts 42°
2026-04-07 21:35 27.60888 -78.98080 27386 ft 479 kts 42°
2026-04-07 21:35 27.63338 -78.95524 27710 ft 481 kts 38°
2026-04-07 21:36 27.66053 -78.93340 28031 ft 480 kts 28°
2026-04-07 21:36 27.69045 -78.91666 28355 ft 479 kts 19°
2026-04-07 21:36 27.72218 -78.90542 28658 ft 477 kts
2026-04-07 21:36 27.75483 -78.89959 28982 ft 476 kts
2026-04-07 21:37 27.78768 -78.89511 29345 ft 476 kts
2026-04-07 21:37 27.82009 -78.89061 29727 ft 475 kts
2026-04-07 21:37 27.85285 -78.88597 30131 ft 474 kts
2026-04-07 21:37 27.88560 -78.88130 30541 ft 473 kts
2026-04-07 21:38 27.91823 -78.87664 30923 ft 473 kts
2026-04-07 21:38 27.95091 -78.87204 31296 ft 473 kts
2026-04-07 21:38 27.98357 -78.86748 31673 ft 472 kts
2026-04-07 21:38 28.01619 -78.86292 32045 ft 472 kts
2026-04-07 21:39 28.04885 -78.85835 32350 ft 473 kts
2026-04-07 21:39 28.08160 -78.85376 32628 ft 475 kts
2026-04-07 21:39 28.11445 -78.84911 32956 ft 476 kts
2026-04-07 21:39 28.14730 -78.84440 33296 ft 476 kts
2026-04-07 21:40 28.18015 -78.83970 33648 ft 476 kts
2026-04-07 21:40 28.21303 -78.83501 33994 ft 476 kts
2026-04-07 21:40 28.24588 -78.83037 34343 ft 476 kts
2026-04-07 21:40 28.27879 -78.82572 34558 ft 476 kts
2026-04-07 21:41 28.31178 -78.82109 34600 ft 479 kts
2026-04-07 21:41 28.37813 -78.81173 34606 ft 481 kts
2026-04-07 21:42 28.44456 -78.80221 34608 ft 481 kts
2026-04-07 21:42 28.51062 -78.79281 34597 ft 481 kts
2026-04-07 21:43 28.57712 -78.78341 34616 ft 481 kts
2026-04-07 21:43 28.64365 -78.77385 34612 ft 482 kts
2026-04-07 21:44 28.71032 -78.76442 34620 ft 483 kts
2026-04-07 21:44 28.77709 -78.75498 34628 ft 484 kts
2026-04-07 21:45 28.84381 -78.74538 34633 ft 484 kts
2026-04-07 21:45 28.91071 -78.73569 34633 ft 485 kts
2026-04-07 21:45 28.94411 -78.73086 34837 ft 484 kts
2026-04-07 21:46 28.97759 -78.72604 34967 ft 485 kts
2026-04-07 21:46 29.04420 -78.71651 34996 ft 485 kts
2026-04-07 21:47 29.11124 -78.70692 35006 ft 486 kts
2026-04-07 21:47 29.17839 -78.69719 34992 ft 486 kts
2026-04-07 21:48 29.24561 -78.68750 35015 ft 486 kts
2026-04-07 21:48 29.31281 -78.67781 35013 ft 487 kts
2026-04-07 21:49 29.38012 -78.66801 35014 ft 487 kts
2026-04-07 21:49 29.44740 -78.65843 35016 ft 488 kts
2026-04-07 21:50 29.51488 -78.64904 35014 ft 488 kts
2026-04-07 21:50 29.58240 -78.63967 35022 ft 489 kts
2026-04-07 21:51 29.65004 -78.63012 35030 ft 489 kts
2026-04-07 21:51 29.71772 -78.62050 35035 ft 490 kts
2026-04-07 21:52 29.78497 -78.61102 35040 ft 490 kts
2026-04-07 21:52 29.85263 -78.60152 35041 ft 490 kts
2026-04-07 21:53 29.92044 -78.59174 35041 ft 491 kts
2026-04-07 21:53 29.98828 -78.58202 35051 ft 492 kts
2026-04-07 21:54 30.05626 -78.57242 35052 ft 493 kts
2026-04-07 21:54 30.12445 -78.56281 35052 ft 494 kts
2026-04-07 21:55 30.19278 -78.55302 35062 ft 495 kts
2026-04-07 21:55 30.26120 -78.54311 35071 ft 496 kts
2026-04-07 21:56 30.32974 -78.53328 35096 ft 495 kts
2026-04-07 21:56 30.39825 -78.52351 35112 ft 496 kts
2026-04-07 21:57 30.46674 -78.51342 35132 ft 496 kts
2026-04-07 21:57 30.53514 -78.50227 35147 ft 496 kts
2026-04-07 21:58 30.60361 -78.49081 35153 ft 498 kts
2026-04-07 21:58 30.67217 -78.47953 35172 ft 498 kts
2026-04-07 21:59 30.74038 -78.46846 35181 ft 497 kts
2026-04-07 21:59 30.80891 -78.45734 35186 ft 497 kts
2026-04-07 22:00 30.87750 -78.44618 35185 ft 498 kts
2026-04-07 22:00 30.94613 -78.43490 35192 ft 498 kts
2026-04-07 22:01 31.01481 -78.42360 35194 ft 497 kts
2026-04-07 22:01 31.08337 -78.41249 35194 ft 497 kts
2026-04-07 22:02 31.15152 -78.40141 35195 ft 497 kts
2026-04-07 22:02 31.22013 -78.39025 35190 ft 498 kts
2026-04-07 22:03 31.28874 -78.37893 35187 ft 498 kts
2026-04-07 22:03 31.39172 -78.36175 35187 ft 498 kts
2026-04-07 22:04 31.46039 -78.35042 35188 ft 498 kts
2026-04-07 22:04 31.52903 -78.33918 35190 ft 498 kts
2026-04-07 22:05 31.59777 -78.32794 35194 ft 499 kts
2026-04-07 22:05 31.66650 -78.31654 35197 ft 499 kts
2026-04-07 22:06 31.73481 -78.30512 35201 ft 499 kts
2026-04-07 22:06 31.80359 -78.29366 35208 ft 499 kts
2026-04-07 22:07 31.87242 -78.28214 35212 ft 499 kts
2026-04-07 22:07 31.94123 -78.27067 35216 ft 499 kts
2026-04-07 22:08 32.01008 -78.25914 35220 ft 499 kts
2026-04-07 22:08 32.07889 -78.24825 35224 ft 499 kts
2026-04-07 22:09 32.14786 -78.23845 35226 ft 499 kts
2026-04-07 22:09 32.21682 -78.22885 35223 ft 499 kts
2026-04-07 22:10 32.28574 -78.21885 35223 ft 499 kts
2026-04-07 22:10 32.35425 -78.20866 35225 ft 500 kts
2026-04-07 22:11 32.42370 -78.19836 35229 ft 500 kts
2026-04-07 22:11 32.49226 -78.18832 35229 ft 500 kts
2026-04-07 22:12 32.56139 -78.17814 35233 ft 501 kts
2026-04-07 22:12 32.63061 -78.16794 35236 ft 501 kts
2026-04-07 22:13 32.69982 -78.15776 35235 ft 501 kts
2026-04-07 22:13 32.76914 -78.14756 35231 ft 502 kts
2026-04-07 22:14 32.82681 -78.13893 35230 ft 503 kts
2026-04-07 22:14 32.89623 -78.12864 35228 ft 503 kts
2026-04-07 22:15 32.96572 -78.11841 35227 ft 504 kts
2026-04-07 22:15 33.03532 -78.10815 35227 ft 504 kts
2026-04-07 22:16 33.10491 -78.09765 35224 ft 504 kts
2026-04-07 22:16 33.17462 -78.08720 35221 ft 505 kts
2026-04-07 22:17 33.24442 -78.07678 35223 ft 505 kts
2026-04-07 22:17 33.31419 -78.06637 35222 ft 505 kts
2026-04-07 22:18 33.38360 -78.05595 35221 ft 506 kts
2026-04-07 22:18 33.45356 -78.04544 35219 ft 507 kts
2026-04-07 22:19 33.52364 -78.03482 35221 ft 507 kts
2026-04-07 22:19 33.59371 -78.02432 35223 ft 508 kts
2026-04-07 22:20 33.66392 -78.01384 35225 ft 508 kts
2026-04-07 22:20 33.73414 -78.00327 35227 ft 509 kts
2026-04-07 22:21 33.80442 -77.99259 35226 ft 509 kts
2026-04-07 22:21 33.87474 -77.98183 35228 ft 509 kts
2026-04-07 22:22 33.94512 -77.97274 35228 ft 508 kts
2026-04-07 22:22 34.01555 -77.96584 35233 ft 507 kts 360°
2026-04-07 22:23 34.08597 -77.95897 35235 ft 508 kts
2026-04-07 22:23 34.15594 -77.95139 35239 ft 509 kts
2026-04-07 22:24 34.22645 -77.94340 35245 ft 509 kts
2026-04-07 22:24 34.29712 -77.93543 35251 ft 509 kts
2026-04-07 22:25 34.36779 -77.92760 35258 ft 509 kts
2026-04-07 22:25 34.43826 -77.91990 35250 ft 509 kts
2026-04-07 22:26 34.50875 -77.91216 35258 ft 509 kts
2026-04-07 22:26 34.57931 -77.90432 35253 ft 509 kts
2026-04-07 22:27 34.64985 -77.89645 35258 ft 509 kts
2026-04-07 22:27 34.72041 -77.88860 35256 ft 509 kts 360°
2026-04-07 22:28 34.79106 -77.88072 35263 ft 510 kts 359°
2026-04-07 22:28 34.86129 -77.87289 35261 ft 510 kts 359°